Location: *
(45.9500°N, 9.0833°E)
Time: 14:13:52
(UTC+00:00)

deb Explorer IX - All Passes

Search period start: 22 June 2021 00:00
Search period end: 02 July 2021 00:00
Orbit: 542 x 1096 km, 38.8° (Epoch: 21 June)

Date Brightness Start Highest point End Pass type
(mag) Time Alt. Az. Time Alt. Az. Time Alt. Az.
22 Jun - 04:34:34 10° SSW 04:37:22 17° SSE 04:40:06 10° ESE daylight
22 Jun - 06:19:45 10° WSW 06:23:21 29° S 06:26:57 10° ESE daylight
22 Jun - 08:06:03 10° WSW 08:09:25 25° SSW 08:12:56 10° SE daylight
22 Jun - 09:54:10 10° SW 09:55:20 11° SSW 09:56:31 10° S daylight
23 Jun - 04:10:38 10° SSW 04:13:33 18° SSE 04:16:21 10° ESE daylight
23 Jun - 05:55:55 10° WSW 05:59:33 30° S 06:03:08 10° ESE daylight
23 Jun - 07:42:17 10° WSW 07:45:37 25° SSW 07:49:04 10° SE daylight
23 Jun - 09:30:40 10° SW 09:31:30 10° SSW 09:32:20 10° SSW daylight
24 Jun - 03:46:41 10° SSW 03:49:45 18° SSE 03:52:38 10° ESE daylight
24 Jun - 05:32:04 10° WSW 05:35:46 30° S 05:39:21 10° ESE daylight
24 Jun - 07:18:28 10° WSW 07:21:49 24° SSW 07:25:12 10° SE daylight
24 Jun - 09:07:20 10° SSW 09:07:40 10° SSW 09:08:01 10° SSW daylight
25 Jun - 03:22:42 10° SSW 03:25:55 19° SSE 03:28:55 10° ESE daylight
25 Jun - 05:08:10 10° WSW 05:11:58 30° S 05:15:34 10° ESE daylight
25 Jun - 06:54:39 10° WSW 06:58:02 24° SSW 07:01:22 10° SE daylight
26 Jun - 02:58:41 10° SSW 03:02:05 19° SSE 03:05:13 10° ESE visible
26 Jun - 04:44:15 10° WSW 04:48:10 31° S 04:51:48 10° ESE daylight
26 Jun - 06:30:48 10° WSW 06:34:13 24° SSW 06:37:34 10° SE daylight
27 Jun - 02:34:39 10° SSW 02:38:14 20° SSE 02:41:31 10° ESE visible
27 Jun - 04:20:18 10° WSW 04:24:21 31° S 04:28:03 10° ESE daylight
27 Jun - 06:06:56 10° WSW 06:10:24 25° SSW 06:13:46 10° SE daylight
28 Jun - 02:10:35 10° SSW 02:14:22 21° SSE 02:17:49 10° ESE visible
28 Jun - 03:56:20 10° WSW 04:00:31 32° S 04:04:19 10° ESE daylight
28 Jun - 05:43:01 10° WSW 05:46:36 25° SSW 05:49:59 10° SE daylight
29 Jun - 01:46:30 10° SSW 01:50:30 22° SSE 01:54:07 10° ESE visible
29 Jun - 03:32:19 10° WSW 03:36:41 33° S 03:40:34 10° ESE daylight
29 Jun - 05:19:06 10° WSW 05:22:47 26° SSW 05:26:13 10° SE daylight
30 Jun - 01:22:24 10° SSW 01:26:37 23° SSE 01:30:23 10° ESE visible
30 Jun - 03:08:18 10° WSW 03:12:50 34° S 03:16:50 10° ESE daylight
30 Jun - 04:55:08 10° WSW 04:58:56 26° SSW 05:02:28 10° SE daylight
01 Jul - 00:58:16 10° SSW 01:02:42 24° SSE 01:06:40 10° ESE visible
01 Jul - 02:44:15 10° WSW 02:48:58 35° S 02:53:06 10° ESE visible
01 Jul - 04:31:08 10° WSW 04:35:06 27° SSW 04:38:43 10° SE daylight
01 Jul - 06:20:39 10° SW 06:20:48 10° SSW 06:20:58 10° SSW daylight
